CSN186 ZGGG-VNKT

Flight info

Callsign CSN186
Flight time N/A
Altitude 34100
Route VIBOS R473 POU A599 GYA B330 AVPAM A599 LXI W148 XSJ W146 GULOT A599 LSO A201 RAJ G463 TEBID A201 BIKIK G463 MONDA R581 ROMEO
Aircraft B753/M-VGDW/C

Departure

Time 2026-05-07 19:02
Airport Guangzhou Baiyun International Airport (ZGGG)

Arrival

Time N/A
Airport Tribhuvan International Airport (VNKT)
Time Latitude Longitude Altitude Speed Heading
2026-05-07 18:38 23.38528 113.29107 56 ft 0 kts 66°
2026-05-07 18:51 23.38524 113.29096 55 ft 2 kts 67°
2026-05-07 18:52 23.38518 113.29081 55 ft 2 kts 66°
2026-05-07 18:52 23.38512 113.29067 55 ft 2 kts 66°
2026-05-07 18:52 23.38506 113.29051 55 ft 2 kts 66°
2026-05-07 18:52 23.38500 113.29036 55 ft 2 kts 66°
2026-05-07 18:53 23.38494 113.29021 55 ft 2 kts 66°
2026-05-07 18:53 23.38488 113.29006 55 ft 2 kts 66°
2026-05-07 18:53 23.38482 113.28991 55 ft 2 kts 73°
2026-05-07 18:53 23.38481 113.28975 55 ft 2 kts 104°
2026-05-07 18:54 23.38488 113.28960 55 ft 2 kts 129°
2026-05-07 18:54 23.38499 113.28949 55 ft 2 kts 154°
2026-05-07 18:54 23.38513 113.28944 55 ft 2 kts 178°
2026-05-07 18:54 23.38522 113.28945 55 ft 1 kts 192°
2026-05-07 18:55 23.38528 113.28947 55 ft 0 kts 194°
2026-05-07 18:57 23.38515 113.28944 55 ft 5 kts 192°
2026-05-07 18:57 23.38456 113.28896 55 ft 17 kts 259°
2026-05-07 18:57 23.38503 113.28770 55 ft 17 kts 345°
2026-05-07 18:57 23.38643 113.28798 55 ft 25 kts 14°
2026-05-07 18:58 23.38836 113.28851 55 ft 29 kts 14°
2026-05-07 18:58 23.39028 113.28902 55 ft 28 kts 13°
2026-05-07 18:58 23.39212 113.28955 55 ft 27 kts 13°
2026-05-07 18:58 23.39398 113.29003 55 ft 27 kts 13°
2026-05-07 18:59 23.39593 113.29053 55 ft 30 kts 14°
2026-05-07 18:59 23.39803 113.29111 55 ft 32 kts 13°
2026-05-07 18:59 23.40026 113.29172 55 ft 34 kts 13°
2026-05-07 18:59 23.40256 113.29234 55 ft 33 kts 14°
2026-05-07 19:00 23.40478 113.29294 55 ft 31 kts 15°
2026-05-07 19:00 23.40677 113.29349 55 ft 28 kts 13°
2026-05-07 19:00 23.40801 113.29343 55 ft 12 kts 295°
2026-05-07 19:00 23.40821 113.29257 55 ft 10 kts 275°
2026-05-07 19:01 23.40799 113.29196 55 ft 8 kts 216°
2026-05-07 19:01 23.40692 113.29160 55 ft 32 kts 194°
2026-05-07 19:01 23.40293 113.29056 55 ft 83 kts 192°
2026-05-07 19:01 23.39571 113.28857 56 ft 130 kts 194°
2026-05-07 19:02 23.38551 113.28584 83 ft 169 kts 192°
2026-05-07 19:02 23.37411 113.28285 491 ft 171 kts 193°
2026-05-07 19:02 23.36259 113.27988 932 ft 173 kts 194°
2026-05-07 19:02 23.35081 113.27690 1360 ft 175 kts 193°
2026-05-07 19:03 23.33883 113.27377 1730 ft 180 kts 194°
2026-05-07 19:03 23.32623 113.27035 1815 ft 197 kts 194°
2026-05-07 19:03 23.31240 113.26666 1864 ft 216 kts 194°
2026-05-07 19:03 23.29708 113.26260 2125 ft 233 kts 194°
2026-05-07 19:04 23.28089 113.25831 2467 ft 248 kts 194°
2026-05-07 19:04 23.26419 113.25390 3188 ft 248 kts 194°
2026-05-07 19:04 23.24698 113.24935 3490 ft 266 kts 194°
2026-05-07 19:04 23.22914 113.24465 4284 ft 264 kts 194°
2026-05-07 19:05 23.21125 113.23993 4879 ft 269 kts 195°
2026-05-07 19:05 23.19311 113.23515 5550 ft 271 kts 195°
2026-05-07 19:05 23.17468 113.23029 6168 ft 275 kts 195°
2026-05-07 19:05 23.15599 113.22536 6796 ft 279 kts 195°
2026-05-07 19:06 23.13711 113.22038 7404 ft 283 kts 195°
2026-05-07 19:06 23.09878 113.21028 8606 ft 290 kts 195°
2026-05-07 19:06 23.07892 113.20506 9203 ft 294 kts 195°
2026-05-07 19:07 23.05902 113.19961 9786 ft 297 kts 200°
2026-05-07 19:07 23.04119 113.18877 10253 ft 301 kts 224°
2026-05-07 19:07 23.02774 113.17062 10319 ft 320 kts 243°
2026-05-07 19:07 23.01990 113.14762 10367 ft 340 kts 260°
2026-05-07 19:08 23.01861 113.12133 10483 ft 359 kts 278°
2026-05-07 19:08 23.02350 113.09493 11253 ft 358 kts 283°
2026-05-07 19:08 23.02782 113.06806 11847 ft 365 kts 279°
2026-05-07 19:08 23.03090 113.04042 12503 ft 369 kts 277°
2026-05-07 19:09 23.03344 113.01291 13142 ft 373 kts 277°
2026-05-07 19:09 23.03574 112.98473 13770 ft 377 kts 276°
2026-05-07 19:09 23.03788 112.95647 14402 ft 380 kts 276°
2026-05-07 19:09 23.03996 112.92773 15022 ft 383 kts 276°
2026-05-07 19:10 23.04202 112.89875 15639 ft 387 kts 276°
2026-05-07 19:10 23.04405 112.86970 16244 ft 390 kts 275°
2026-05-07 19:10 23.04607 112.84044 16840 ft 393 kts 275°
2026-05-07 19:10 23.04811 112.81084 17428 ft 396 kts 275°
2026-05-07 19:11 23.05016 112.78104 17993 ft 399 kts 275°
2026-05-07 19:11 23.05222 112.75088 18539 ft 403 kts 275°
2026-05-07 19:11 23.05429 112.72041 19081 ft 406 kts 275°
2026-05-07 19:11 23.05636 112.68993 19596 ft 409 kts 276°
2026-05-07 19:12 23.05846 112.65885 20117 ft 412 kts 276°
2026-05-07 19:12 23.06055 112.62791 20613 ft 415 kts 276°
2026-05-07 19:12 23.06264 112.59683 21100 ft 418 kts 276°
2026-05-07 19:12 23.06477 112.56509 21582 ft 421 kts 276°
2026-05-07 19:13 23.06689 112.53341 22054 ft 424 kts 276°
2026-05-07 19:13 23.06910 112.50121 22522 ft 427 kts 277°
2026-05-07 19:13 23.07384 112.46987 22962 ft 429 kts 284°
2026-05-07 19:13 23.08051 112.43810 23413 ft 431 kts 284°
2026-05-07 19:14 23.08718 112.40609 23852 ft 434 kts 284°
2026-05-07 19:14 23.09389 112.37406 24276 ft 437 kts 284°
2026-05-07 19:14 23.10060 112.34213 24690 ft 440 kts 284°
2026-05-07 19:14 23.10744 112.30957 25094 ft 443 kts 284°
2026-05-07 19:15 23.11434 112.27675 25498 ft 445 kts 284°
2026-05-07 19:15 23.12122 112.24403 25874 ft 448 kts 284°
2026-05-07 19:15 23.12818 112.21087 26262 ft 451 kts 284°
2026-05-07 19:15 23.13513 112.17776 26632 ft 453 kts 284°
2026-05-07 19:16 23.14212 112.14439 26993 ft 456 kts 284°
2026-05-07 19:16 23.14915 112.11083 27351 ft 458 kts 284°
2026-05-07 19:16 23.15548 112.08054 27663 ft 460 kts 284°
2026-05-07 19:16 23.15933 112.06216 27848 ft 462 kts 284°
2026-05-07 19:17 23.19205 111.90514 29334 ft 472 kts 284°
2026-05-07 19:18 23.19926 111.87042 29638 ft 474 kts 284°
2026-05-07 19:18 23.20646 111.83573 29934 ft 476 kts 284°
2026-05-07 19:18 23.21392 111.80039 30226 ft 478 kts 284°
2026-05-07 19:18 23.22138 111.76535 30503 ft 481 kts 284°
2026-05-07 19:19 23.22886 111.73013 30820 ft 481 kts 284°
2026-05-07 19:19 23.23644 111.69439 31223 ft 480 kts 284°
2026-05-07 19:19 23.24384 111.65946 31583 ft 479 kts 284°
2026-05-07 19:19 23.25125 111.62445 31927 ft 478 kts 284°
2026-05-07 19:20 23.25874 111.58904 32268 ft 478 kts 284°
2026-05-07 19:20 23.26611 111.55410 32591 ft 477 kts 284°
2026-05-07 19:20 23.27346 111.51914 32902 ft 476 kts 284°
2026-05-07 19:20 23.28072 111.48392 33205 ft 476 kts 284°
2026-05-07 19:21 23.28785 111.44929 33492 ft 475 kts 284°
2026-05-07 19:21 23.29504 111.41436 33770 ft 474 kts 284°
2026-05-07 19:21 23.30227 111.37917 33999 ft 474 kts 284°
2026-05-07 19:21 23.30948 111.34408 34013 ft 475 kts 284°
2026-05-07 19:22 23.32367 111.27479 34039 ft 472 kts 284°
2026-05-07 19:22 23.33798 111.20480 34076 ft 472 kts 284°
2026-05-07 19:23 23.35229 111.13512 34119 ft 472 kts 284°
2026-05-07 19:23 23.36705 111.06590 34147 ft 471 kts 285°
2026-05-07 19:24 23.38173 110.99678 34147 ft 468 kts 285°
2026-05-07 19:24 23.39635 110.92781 34147 ft 466 kts 285°
2026-05-07 19:25 23.41076 110.85964 34147 ft 464 kts 284°
2026-05-07 19:25 23.42525 110.79091 34147 ft 464 kts 284°
2026-05-07 19:26 23.43959 110.72275 34147 ft 464 kts 284°
2026-05-07 19:26 23.45367 110.65415 34147 ft 464 kts 284°
2026-05-07 19:27 23.46768 110.58560 34146 ft 465 kts 284°
2026-05-07 19:27 23.48168 110.51692 34146 ft 465 kts 284°
2026-05-07 19:28 23.49557 110.44868 34146 ft 465 kts 284°
2026-05-07 19:28 23.50954 110.37987 34146 ft 465 kts 284°
2026-05-07 19:29 23.52379 110.31151 34147 ft 465 kts 284°
2026-05-07 19:29 23.53823 110.24287 34147 ft 464 kts 284°
2026-05-07 19:30 23.55259 110.17441 34147 ft 464 kts 284°
2026-05-07 19:30 23.56691 110.10595 34147 ft 464 kts 284°
2026-05-07 19:31 23.58121 110.03747 34147 ft 464 kts 284°
2026-05-07 19:31 23.59552 109.96875 34146 ft 464 kts 284°
2026-05-07 19:32 23.60977 109.90018 34146 ft 464 kts 284°
2026-05-07 19:32 23.62403 109.83141 34146 ft 464 kts 284°
2026-05-07 19:33 23.63821 109.76283 34146 ft 464 kts 284°
2026-05-07 19:33 23.65233 109.69441 34146 ft 464 kts 284°
2026-05-07 19:34 23.66646 109.62577 34144 ft 464 kts 284°
2026-05-07 19:34 23.68044 109.55720 34145 ft 464 kts 284°
2026-05-07 19:35 23.69442 109.48835 34145 ft 464 kts 284°
2026-05-07 19:35 23.70842 109.41928 34144 ft 464 kts 284°
2026-05-07 19:36 23.72227 109.35077 34121 ft 465 kts 284°
2026-05-07 19:36 23.73612 109.28208 34100 ft 465 kts 284°
2026-05-07 19:37 23.74997 109.21324 34076 ft 465 kts 284°
2026-05-07 19:37 23.76270 109.14410 34067 ft 465 kts 278°
2026-05-07 19:38 23.76608 109.09663 34066 ft 466 kts 275°